Location: Palomar Mountain Lodge
(33.3110°N, 116.8495°W)
Time: 12:14:58
(UTC-08:00)

SPOT 1/Viking Rocket - Pass Details

Date: 12 July 2018
Orbit: 778 x 794 km, 98.6° (Epoch: 18 November)

Event Time Altitude Azimuth Distance (km) Brightness Sun altitude
Exits shadow 22:54:51 50° 251° (WSW) 992 4.0 -28.1°
Maximum altitude 22:55:04 50° 260° (W) 988 4.1 -28.1°
Drops below altitude 10° 23:00:05 10° 335° (NNW) 2,341 7.0 -28.6°
Sets 23:02:29 0° 341° (NNW) 3,276 7.9 -28.9°
